Notices

What's New in latest Release from April 7th, 2021:

- Updated Glossary, including Speed of Maximum Gust, and Total Hourly Precipitation

- Updated national and regional climate services offices contacts and prices information

- Addition of station inventory lists for 1981-2010, 1971-2000, and 1961-1990 Normals.

If you haven't already, please take our survey and provide feedback about our website: https://eccc.sondage-survey.ca/f/LanguageSelection.aspx?s=442ca660-fcf1-47c0-95a9-59707d6fd709

Hourly Data Report for September 18, 2017

VICTORIA UNIVERSITY CS
BRITISH COLUMBIA

48°27'25.200" N
123°18'16.600" W
60.10 m
1018598
71783
WYJ

Download Data

Hourly Data (September 2017)
Hourly Data Report for September 18, 2017
TIME
LST
Temp Definition
°C
Dew Point Definition
°C
Rel Hum Definition
%
Precip. Amount Definition
mm

Wind Dir Definition
10's deg

Wind Spd Definition
km/h
Visibility Definition
km
Stn Press Definition
kPa
Hmdx Definition


Wind Chill Definition


Weather Definition


00:00 9.8 8.4 92 0.0 15 2   100.14     LegendNANA
01:00 9.0 7.9 93 0.0 15 3   100.12     LegendNANA
02:00 9.3 7.7 90 0.0 17 4   100.09     LegendNANA
03:00 8.8 7.8 93 0.0 0 1   100.05     LegendNANA
04:00 8.8 8.1 96 0.0 24 2   100.02     LegendNANA
05:00 9.6 8.7 94 0.8 26 5   100.02     LegendNANA
06:00 9.5 8.9 96 0.7 25 3   99.99     LegendNANA
07:00 9.5 8.8 95 0.0 24 3   99.98     LegendNANA
08:00 10.9 8.5 85 0.0 23 2   99.98     LegendNANA
09:00 12.8 9.0 78 0.0 10 2   100.00     LegendNANA
10:00 13.2 8.1 72 0.0 11 4   100.00     LegendNANA
11:00 13.6 10.1 79 0.0 14 4   100.01     LegendNANA
12:00 13.8 9.8 77 0.0 16 8   100.00     LegendNANA
13:00 14.1 8.9 71 0.0 15 7   99.97     LegendNANA
14:00 13.7 7.9 68 0.0 17 7   99.93     LegendNANA
15:00 13.9 7.7 66 0.0 16 2   99.89     LegendNANA
16:00 13.4 7.2 66 0.0 15 2   99.84     LegendNANA
17:00 13.5 7.2 66 0.0   0   99.80     LegendNANA
18:00 11.8 8.1 78 0.2 26 4   99.77     LegendNANA
19:00 11.2 7.6 79 0.0 30 4   99.72     LegendNANA
20:00 10.9 7.5 80 0.0 1 6   99.71     LegendNANA
21:00 10.2 8.6 89 0.0 1 3   99.69     LegendNANA
22:00 10.3 9.4 94 0.0 2 3   99.68     LegendNANA
23:00 10.1 9.4 95 0.0 26 2   99.68     LegendNANA

Notes on Data Quality.

Legend

  • E = Estimated
  • M = Missing
  • NA = Not Available*
  • [empty] = Indicates an unobserved value
Date modified: